User: anonymous   Login
Location: Unspecified
(0.0000°N, 0.0000°E)
Time: 22:16:07
(UTC+00:00)
Language:

ELFIN B - Orbit

View from above orbital plane
View from above orbital plane
View from above satellite
View from above satellite

Ground track
Ground track

The orbit data is extracted from the following two-line orbital elements,

1 43616U 18070D   19047.45801370  .00003030  00000-0  82775-4 0  9994
2 43616  93.0350 313.1155 0020090  64.3879 295.9447 15.37257404 23631
Epoch (UTC): 16 February 2019 10:59:32
Eccentricity: 0.0020090
inclination: 93.0350°
perigee height: 440 km
apogee height: 468 km
right ascension of ascending node: 313.1155°
argument of perigee: 64.3879°
revolutions per day: 15.37257404
mean anomaly at epoch: 295.9447°
orbit number at epoch: 2363

The dashed part of the orbit path shows where the satellite is in the earth's shadow,  

DLR